CZ-6A DEB

Satellite information

Favourite Embed

Satellite Type and Status

DEBRISIN ORBIT

Key statistics

Satellite CZ-6A DEB at a glance.

Uptime

335

Days in orbit

Revolutions

≈ 14.5

Per day

Orbit

LEO

Low Earth Orbit

Inclination

88.8

Latest

Satellite identification and parameters

Extended collection of information and parameters for CZ-6A DEB.

Object identification

Identified? True

Debris? True

Object name: CZ-6A DEB

International designator: 2024-140YQ

Object number (NORAD): 61423

Object ID (CCSDS): 61423

Country: PEOPLES REPUBLIC OF CHINA (PRC)

Current information (Y/N): Y

RCS size: SMALL

Orbital parameters

Period: 99.239 minutes

Inclination: 88.8301 deg

SMA: 7100.366 km

Apoapsis: 817.52 km

Periapsis: 626.942 km

RAAN: 304.7461 deg

Eccentricy: 0.0134203

Argument of periapsis: 50.2207 deg

Mean anomaly: 311.0728 deg

Mean motion: 14.51047496 rev/day

Mean motion (dot): 0.00002306 rev/day2

B* drag term: 0.00051417 1/REarth

Two-line elements (TLE)

Creation date: July 5, 2025, 11:06 p.m.

Reference frame: TEME

Reference center: EARTH

Epoch: July 5, 2025, 7:34 p.m. UTC

TLE line 0: 0 CZ-6A DEB

TLE line 1: 1 61423U 24140YQ 25186.81547825 .00002306 00000-0 51417-3 0 9991

TLE line 2: 2 61423 88.8301 304.7461 0134203 50.2207 311.0728 14.51047496 46058

Live tracking on map

Real-time ground track for satellite CZ-6A DEB.

In-orbit conjunctions

A list of the most updated potential collisions computed for object CZ-6A DEB.

Target Orbit TCA Probability of collision Miss distance Type
CSTB 1 SSO 2025-05-25 12:55:50 0.00036588 120.0 (m) PAYLOAD
SL-24 R/B SSO 2025-05-12 21:28:51 0.0002031403 138.0 (m) ROCKET BODY
DMSP 5D-2 F11 DEB SSO 2025-02-02 02:51:04 0.0001136206 764.0 (m) DEBRIS
NOAA 16 DEB SSO 2025-01-26 18:24:49 0.0001990574 918.0 (m) DEBRIS

Associated space launch

18 Low Earth Orbit communication satellites with Ku, Q and V band payloads for the G60 constellation operated by Shanghai Spacecom Satellite Technology (SSST) with funding backed by the Shanghai local government. Initial constellation will consist of 1296 satellites by 2027 with long term plans to expand it to 12000 satellites.

CZ-6A DEB was lifted into orbit during the mission ‘Long March 6A | G60 Polar Group 01’, on board a Long March 6A space rocket.

The launch took place on Aug. 6, 2024, 6:42 a.m. from Launch Complex 9A.

For more information about the launch, click the button.

Launch to space Long March 6A | G60 Polar Group 01
Long March 6A | G60 Polar Group 01

Agency: N/A

Status: Launch Successful

Launch date: Aug. 6, 2024, 6:42 a.m. UTC

Rocket: Long March 6A

Launch pad: Launch Complex 9A

Location: Taiyuan Satellite Launch Center, People's Republic of China

...

Latest news about this satellite

News about space launch
Brightness of first Chinese broadband constellation satellites alarms astronomers

The first satellites of a Chinese broadband constellation are significantly brighter than those of Western systems, posing a new challenge for astronomers.

News about space launch
Chinese rocket stage breaks up into cloud of more than 700 pieces of space debris

HELSINKI — A Chinese Long March 6A rocket’s upper stage has fragmented into a cloud of over 700 pieces of space debris, adding to concerns about long-term orbital safety. China […]

News about space launch
China's Thousand Sails Megaconstellation Kicks Off with Dangerous Debris Field

China's Thousand Sails Megaconstellation Kicks Off with Dangerous Debris Field


Newsletter sign-up

Weekly statistics, charts and insights to help you stay on top of the space industry.